Hourly Data Report for September 04, 2017

All times are specified in Local Standard Time (LST). Add 1 hour to adjust for Daylight Saving Time where and when it is observed.

CHARLOTTETOWN A
PRINCE EDWARD ISLAND

46°17'21.000" N
63°07'09.000" W
48.50 m
8300301
71706
YYG

Download Data

Hourly Data (September 2017)
Hourly Data Report for September 4, 2017
Temp Definition
°C
Dew Point Temp Definition
°C
Rel Hum Definition
%
Wind Dir Definition
10's deg

Wind Spd Definition
km/h
Visibility Definition
km
Stn Press Definition
kPa
Hmdx Definition


Wind Chill Definition


Weather Definition


TIME
00:00 Legend Double Dagger 13.8 11.8 87 16 27 12.9 100.85     Rain
01:00 Legend Double Dagger 13.3 12.2 93 14 21 12.9 100.68     Rain
02:00 Legend Double Dagger 13.3 12.6 95 13 28 9.7 100.44     Rain,Fog
03:00 Legend Double Dagger 13.8 13.2 96 13 23 12.9 100.26     Rain
04:00 Legend Double Dagger 14.4 13.7 95 13 22 12.9 100.02     Rain
05:00 Legend Double Dagger 15.2 14.3 95 14 33 19.3 99.86     Rain
06:00 Legend Double Dagger 16.1 15.0 93 15 27 24.1 99.75     LegendNANA
07:00 Legend Double Dagger 17.1 16.0 93 17 34 12.9 99.64     Rain Showers
08:00 Legend Double Dagger 18.0 17.1 94 17 26 24.1 99.57     Mostly Cloudy
09:00 Legend Double Dagger 18.8 16.2 85 21 28 24.1 99.54     LegendNANA
10:00 Legend Double Dagger 16.2 12.7 80 20 36 24.1 99.55     Rain Showers
11:00 Legend Double Dagger 16.0 12.3 78 23 31 24.1 99.53     Rain Showers
12:00 Legend Double Dagger 15.0 12.7 86 22 34 16.1 99.58     Rain Showers
13:00 Legend Double Dagger 15.7 13.4 86 22 35 24.1 99.62     Rain Showers
14:00 Legend Double Dagger 16.1 13.5 85 24 31 19.3 99.73     Rain Showers
15:00 Legend Double Dagger 16.5 12.9 79 23 24 24.1 99.80     LegendNANA
16:00 Legend Double Dagger 16.7 12.2 75 23 22 24.1 99.89     LegendNANA
17:00 Legend Double Dagger 16.8 13.3 80 24 16 24.1 99.95     Cloudy
18:00 Legend Double Dagger 16.9 12.8 77 24 22 24.1 100.04     LegendNANA
19:00 Legend Double Dagger 16.2 13.2 82 23 18 24.1 100.13     LegendNANA
20:00 Legend Double Dagger 15.8 12.8 82 24 16 24.1 100.22     Mainly Clear
21:00 Legend Double Dagger 15.1 12.4 83 23 13 24.1 100.27     LegendNANA
22:00 Legend Double Dagger 15.7 12.5 81 24 14 24.1 100.27     LegendNANA
23:00 Legend Double Dagger 15.5 12.4 81 21 16 24.1 100.31     Clear

Notes on Data Quality.

Legend

  • E = Estimated
  • M = Missing
  • NA = Not Available
  • ‡ = Partner data that is not subject to review by the National Climate Archives
Date modified: